This is the latest recevied weather packets stored in our database for station/object KC1IUC-13. If no packets are shown the sender has not sent any weather packets the latest 10 day(s).
| Time | Temp. | Humidity | Pressure | Rain* | Wind** | Luminosity | Snow |
|---|---|---|---|---|---|---|---|
| 1777757223 | 13.89° C | 60% | 1005.9 hPa | 0 mm | - | 67 W/m² | - |
| 1777756683 | 13.89° C | 60% | 1005.9 hPa | 0 mm | - | 63 W/m² | - |
| 1777756143 | 13.89° C | 60% | 1005.9 hPa | 0 mm | - | 92 W/m² | - |
| 1777755603 | 14.44° C | 60% | 1005.6 hPa | 0 mm | - | 66 W/m² | - |
| 1777755243 | 13.89° C | 60% | 1005.9 hPa | 0 mm | - | 72 W/m² | - |
| 1777754703 | 14.44° C | 60% | 1005.9 hPa | 0 mm | - | 82 W/m² | - |
| 1777754163 | 14.44° C | 60% | 1005.9 hPa | 0 mm | - | 93 W/m² | - |
| 1777753623 | 15.56° C | 60% | 1005.9 hPa | 0 mm | - | 93 W/m² | - |
| 1777753083 | 16.11° C | 62% | 1006.3 hPa | 0 mm | - | 563 W/m² | - |
| 1777752543 | 16.67° C | 64% | 1006.3 hPa | 0 mm | - | 627 W/m² | - |
| 1777752003 | 16.67° C | 65% | 1006.3 hPa | 0 mm | - | 406 W/m² | - |
| 1777751643 | 16.67° C | 67% | 1006.3 hPa | 0 mm | - | 347 W/m² | - |
| 1777751103 | 14.44° C | 65% | 1006.6 hPa | 0 mm | - | 601 W/m² | - |
| 1777750563 | 15° C | 66% | 1007 hPa | 0 mm | - | 166 W/m² | - |
| 1777750023 | 15.56° C | 68% | 1007 hPa | 0 mm | - | 675 W/m² | - |
| 1777749483 | 15° C | 68% | 1007 hPa | 0 mm | - | 416 W/m² | - |
| 1777748943 | 14.44° C | 69% | 1007 hPa | 0 mm | - | 512 W/m² | - |
| 1777748403 | 14.44° C | 71% | 1007.3 hPa | 0 mm | - | 237 W/m² | - |
| 1777748043 | 14.44° C | 71% | 1007.3 hPa | 0 mm | - | 352 W/m² | - |
| 1777747503 | 13.89° C | 71% | 1007.6 hPa | 0 mm | - | 243 W/m² | - |
| 1777746963 | 14.44° C | 72% | 1007.3 hPa | 0 mm | - | 257 W/m² | - |
| 1777746423 | 14.44° C | 74% | 1007.6 hPa | 0 mm | - | 595 W/m² | - |
| 1777745883 | 13.33° C | 74% | 1007.6 hPa | 0 mm | - | 386 W/m² | - |
| 1777745343 | 13.33° C | 76% | 1007.6 hPa | 0 mm | - | 361 W/m² | - |
| 1777744803 | 12.78° C | 77% | 1007.6 hPa | 0 mm | - | 198 W/m² | - |
* Rain latest hour (hover to see other rain measurements)
** Current wind speed in m/s (hover to see current wind gust speed)